[[{"header":{"parameterUnit":"m.s-1","parameterCategory":1,"la1":30.2991,"la2":30.254,"lo1":-89.0895,"lo2":-89.0444,"dy":0.0017,"dx":0.0017,"nx":28,"ny":28,"refTime":"2023-09-22T09:00:00:Z","depth":0,"parameterNumber":2,"parameterNumberName":"U-component_of_WINDS"},"data":[0,0,0,0,0,0,0,0,0,0,0,0,0,0,0,0,0,0,0,0,0,0,0,0,0,0,0,0,0,0,0,0,0,0,0,0,0,0,0,0,0,0,0,0,0,0,0,0,0,0,0,0,0,0,0,0,0,0,-3.4372,-3.4372,0,-3.4376,-3.4376,-3.4376,-3.4299,-3.4297,-3.4295,-3.4293,-3.4294,-3.4296,-3.4298,0,0,0,0,0,0,0,0,0,0,0,0,0,-3.4297,-3.4298,-3.4372,-3.4372,-3.4372,-3.4376,-3.4376,-3.4376,-3.4299,-3.4297,-3.4294,-3.4292,-3.4294,-3.4296,-3.4298,0,0,0,0,0,0,0,0,0,0,0,0,0,-3.4318,-3.4299,-3.4372,-3.4334,-3.4331,-3.4376,-3.4376,-3.4376,-3.43,-3.4296,-3.4293,-3.429,-3.4293,-3.4296,-3.4299,-3.438,0,0,-3.4308,-3.4309,0,0,0,0,0,0,0,0,-3.4317,-3.4321,-3.434,-3.4337,-3.4333,-3.4334,-3.435,-3.4378,-3.43,-3.4311,-3.4293,-3.4289,-3.431,-3.4311,-3.4319,-3.438,-3.438,-3.4308,-3.431,-3.4311,-3.4312,0,0,0,0,0,0,0,-3.4315,-3.432,-3.4374,-3.434,-3.4336,-3.4317,-3.4316,-3.4355,-3.4328,-3.431,-3.4305,-3.4306,-3.4308,-3.4316,-3.4318,-3.438,-3.4308,-3.4311,-3.4313,-3.4314,-3.4509,-3.4512,0,0,0,0,0,0,-3.4319,-3.4319,-3.4374,-3.4374,-3.4317,-3.4321,-3.432,-3.4337,-3.4328,-3.4323,-3.4309,-3.4303,-3.4313,-3.4315,-3.4318,-3.4412,-3.4311,-3.4314,-3.4316,-3.4505,-3.4509,-3.4513,0,0,0,0,0,0,-3.4318,-3.4325,-3.4374,-3.4345,-3.435,-3.4325,-3.4345,-3.4339,-3.4347,-3.4327,-3.4321,-3.4323,-3.431,-3.4314,-3.4365,-3.4411,-3.4315,-3.4318,-3.4501,-3.4506,-3.4511,-3.4601,0,0,0,0,0,0,-3.4316,-3.4325,-3.4355,-3.4347,-3.4352,-3.4421,-3.4348,-3.4341,-3.4353,-3.4345,-3.4338,-3.4334,-3.4308,-3.4361,-3.4368,-3.4413,-3.4321,-3.4497,-3.4504,-3.4509,-3.4594,-3.4608,-3.4621,0,0,0,0,0,-3.4314,-3.438,-3.4357,-3.4364,-3.439,-3.4424,-3.4427,-3.4396,-3.4357,-3.4387,-3.4374,-3.4334,-3.4406,-3.4367,-3.4375,-3.4421,-3.4494,-3.4502,-3.4509,-3.4587,-3.4605,-3.4621,0,0,0,0,0,0,-3.4393,-3.4378,-3.4353,-3.4418,-3.4423,-3.4411,-3.4448,-3.4416,-3.4432,-3.4423,-3.4384,-3.4383,-3.4441,-3.4436,-3.4394,-3.4499,-3.4443,-3.4452,-3.45,-3.4517,-3.453,-3.4529,-3.4323,0,0,0,0,0,-3.4419,-3.4449,-3.4433,-3.4493,-3.4497,-3.4473,-3.4486,-3.4463,-3.4466,-3.4467,-3.4458,-3.4462,-3.4485,-3.4501,-3.4521,-3.4594,-3.4591,-3.4629,-3.4643,-3.4654,-3.4662,-3.47,-3.4717,-3.4538,-3.4538,-3.4538,0,0,-3.4471,-3.4466,-3.4487,-3.4509,-3.451,-3.4541,-3.4474,-3.451,-3.4533,-3.4472,-3.452,-3.4514,-3.4516,-3.4578,-3.4605,-3.4576,-3.4712,-3.4664,-3.4673,-3.4675,-3.4709,-3.4726,-3.4741,-3.4543,-3.4542,-3.4541,0,0,-3.4581,-3.4582,-3.4631,-3.4634,-3.4637,-3.4621,-3.4633,-3.4626,-3.462,-3.4668,-3.4624,-3.465,-3.4691,-3.4694,-3.4702,-3.4817,-3.478,-3.4825,-3.4895,-3.4932,-3.4946,-3.4959,-3.4999,-3.5013,-3.4833,-3.4834,-3.4834,0,-3.4645,-3.4691,-3.466,-3.4699,-3.471,-3.4659,-3.4708,-3.4712,-3.4722,-3.473,-3.4698,-3.4749,-3.4747,-3.4809,-3.4838,-3.4846,-3.4858,-3.4824,-3.4947,-3.4959,-3.497,-3.5008,-3.5023,-3.4839,-3.4838,-3.4838,-3.4837,0,-3.4769,-3.4802,-3.4841,-3.4853,-3.4869,-3.4913,-3.4888,-3.4907,-3.4884,-3.4871,-3.4921,-3.4917,-3.4936,-3.495,-3.4926,-3.5009,-3.4991,-3.4954,-3.4895,-3.4993,-3.5027,-3.5042,-3.4846,-3.4844,-3.4843,-3.4842,0,0,-3.4926,-3.4923,-3.4937,-3.4942,-3.4943,-3.4968,-3.5011,-3.503,-3.5047,-3.5056,-3.509,-3.5128,-3.5094,-3.5102,-3.5079,-3.5112,-3.5203,-3.5071,-3.507,-3.5094,-3.5293,-3.5319,-3.5336,-3.518,-3.5183,-3.5185,-3.5292,0,-3.5032,-3.5104,-3.5079,-3.5152,-3.5182,-3.5136,-3.5173,-3.5178,-3.5168,-3.5191,-3.518,-3.5207,-3.5161,-3.5166,-3.5197,-3.5185,-3.5242,-3.5177,-3.521,-3.5211,-3.5208,-3.5355,-3.5382,-3.5484,-3.5306,-3.5308,-3.531,0,-3.5164,-3.5181,-3.5258,-3.5255,-3.5267,-3.53,-3.5317,-3.534,-3.5345,-3.5336,-3.5347,-3.5317,-3.5358,-3.5303,-3.5358,-3.5315,-3.5327,-3.5324,-3.5327,-3.5327,-3.5264,-3.5356,-3.5515,-3.553,-3.5331,-3.5329,-3.5328,0,-3.527,-3.5311,-3.5362,-3.5368,-3.5367,-3.5391,-3.5392,-3.5394,-3.5408,-3.5423,-3.5431,-3.545,-3.546,-3.5476,-3.5452,-3.5414,-3.5511,-3.5454,-3.5503,-3.5504,-3.5523,-3.5522,-3.5684,-3.5536,-3.5535,-3.5535,-3.5535,0,-3.5389,-3.5437,-3.5409,-3.5441,-3.5494,-3.5465,-3.5518,-3.5514,-3.5516,-3.5546,-3.5507,-3.5536,-3.5504,-3.5529,-3.5511,-3.556,-3.5565,-3.5558,-3.5552,-3.556,-3.556,-3.5565,-3.5556,-3.5539,-3.5538,-3.5537,-3.5537,0,-3.5513,-3.5497,-3.555,-3.5545,-3.5545,-3.5585,-3.558,-3.5609,-3.5598,-3.5636,-3.5643,-3.5625,-3.5653,-3.5632,-3.5659,-3.5647,-3.5711,-3.5696,-3.571,-3.5705,-3.5755,-3.575,-3.5924,-3.5945,-3.5785,-3.5787,-3.5788,0,-3.5589,-3.5626,-3.5626,-3.5644,-3.5647,-3.5676,-3.5691,-3.5665,-3.5682,-3.5691,-3.5719,-3.5744,-3.5762,-3.5809,-3.5798,-3.5819,-3.5803,-3.5863,-3.5806,-3.5813,-3.5802,-3.5799,-3.5802,-3.5874,-3.5876,-3.5877,-3.5878,0,-3.5726,-3.5716,-3.5739,-3.5761,-3.578,-3.5795,-3.5806,-3.5823,-3.5797,-3.5817,-3.5846,-3.5861,-3.589,-3.5915,-3.5933,-3.5932,-3.5901,-3.5897,-3.5909,-3.5916,-3.5922,-3.5918,-3.5739,-3.5892,-3.5891,-3.589,-3.5889,-3.5889,-3.5826,-3.5857,-3.5863,-3.589,-3.5897,-3.5909,-3.5936,-3.593,-3.5954,-3.5976,-3.596,-3.5994,-3.5999,-3.602,-3.6024,-3.605,-3.6025,-3.6044,-3.6048,-3.6052,-3.6058,-3.5921,-3.6054,-3.6053,-3.6053,-3.6053,-3.6052,0,-3.5959,-3.5961,-3.5987,-3.6006,-3.6028,-3.5999,-3.6011,-3.6031,-3.6062,-3.6071,-3.609,-3.6124,-3.6149,-3.6142,-3.6164,-3.6186,-3.6172,-3.6192,-3.6189,-3.6189,-3.608,-3.6066,-3.6203,-3.6203,-3.6203,-3.6203,-3.6203,-3.6203,-3.603,-3.608,-3.6072,-3.6126,-3.6127,-3.6162,-3.6171,-3.6182,-3.6189,-3.6229,-3.625,-3.6246,-3.6248,-3.627,-3.6292,-3.6289,-3.6298,-3.6323,-3.6315,-3.6212,-3.6197,-3.6183,-3.617,-3.6326,-3.6326,-3.6421,-3.6422,-3.6423]},{"header":{"parameterUnit":"m.s-1","parameterCategory":1,"la1":30.2991,"la2":30.254,"lo1":-89.0895,"lo2":-89.0444,"dy":0.0017,"dx":0.0017,"nx":28,"ny":28,"refTime":"2023-09-22T09:00:00:Z","depth":0,"parameterNumber":3,"parameterNumberName":"V-component_of_WINDS"},"data":[0,0,0,0,0,0,0,0,0,0,0,0,0,0,0,0,0,0,0,0,0,0,0,0,0,0,0,0,0,0,0,0,0,0,0,0,0,0,0,0,0,0,0,0,0,0,0,0,0,0,0,0,0,0,0,0,0,0,0.8025,0.8023,0,0.7803,0.78,0.7797,0.7703,0.7704,0.7704,0.7704,0.7466,0.746,0.7453,0,0,0,0,0,0,0,0,0,0,0,0,0,0.8361,0.8355,0.8025,0.8022,0.802,0.7803,0.78,0.7797,0.7703,0.7704,0.7704,0.7705,0.7468,0.7461,0.7452,0,0,0,0,0,0,0,0,0,0,0,0,0,0.8184,0.8353,0.8026,0.7947,0.7938,0.7804,0.78,0.7796,0.7703,0.7704,0.7704,0.7705,0.7471,0.7461,0.7451,0.7376,0,0,0.742,0.7416,0,0,0,0,0,0,0,0,0.8194,0.8172,0.7961,0.7952,0.7942,0.7782,0.7831,0.7655,0.7703,0.7792,0.7704,0.7705,0.757,0.7552,0.7508,0.7365,0.7354,0.7419,0.7413,0.7409,0.7406,0,0,0,0,0,0,0,0.8207,0.8181,0.7937,0.7958,0.7946,0.792,0.7896,0.7797,0.7679,0.7784,0.7777,0.7752,0.7565,0.7518,0.7502,0.7351,0.742,0.7411,0.7405,0.7401,0.7135,0.7134,0,0,0,0,0,0,0.8233,0.8192,0.7944,0.793,0.8073,0.7914,0.7886,0.7832,0.768,0.7658,0.7752,0.7749,0.7535,0.7514,0.7493,0.7395,0.7409,0.74,0.7394,0.7136,0.7135,0.7134,0,0,0,0,0,0,0.8241,0.8212,0.7953,0.8059,0.8024,0.7907,0.7847,0.7827,0.7781,0.7656,0.7634,0.7727,0.7535,0.7507,0.7407,0.7386,0.7395,0.7386,0.7137,0.7135,0.7134,0.7199,0,0,0,0,0,0,0.8251,0.8215,0.8187,0.8059,0.8019,0.7873,0.7846,0.7822,0.7765,0.7759,0.7627,0.7605,0.7533,0.7422,0.7397,0.7372,0.7378,0.7138,0.7136,0.7135,0.7198,0.72,0.7201,0,0,0,0,0,0.8263,0.8212,0.8186,0.8157,0.7982,0.7872,0.7848,0.7769,0.7764,0.7733,0.7654,0.7609,0.7393,0.7413,0.7383,0.7355,0.7139,0.7137,0.7135,0.7197,0.72,0.7201,0,0,0,0,0,0,0.8335,0.8193,0.8163,0.807,0.7984,0.7856,0.7815,0.7774,0.7685,0.7682,0.7585,0.7556,0.7464,0.7399,0.7424,0.7274,0.7262,0.7254,0.732,0.7321,0.7323,0.7339,0.7369,0,0,0,0,0,0.8342,0.8267,0.8145,0.8074,0.8033,0.7932,0.7881,0.7829,0.7734,0.7696,0.7609,0.7517,0.7428,0.7371,0.7282,0.7189,0.7158,0.7155,0.7157,0.7159,0.7152,0.7099,0.7096,0.7126,0.7126,0.7126,0,0,0.8351,0.8264,0.8222,0.8087,0.8014,0.7937,0.7902,0.7821,0.7762,0.7683,0.7583,0.7517,0.7407,0.731,0.7263,0.7253,0.7137,0.7156,0.7159,0.715,0.7096,0.7093,0.7091,0.7125,0.7125,0.7125,0,0,0.833,0.8257,0.819,0.812,0.8012,0.7946,0.793,0.7809,0.7763,0.7662,0.7602,0.7529,0.7378,0.7303,0.7245,0.7199,0.7154,0.7172,0.718,0.7129,0.7126,0.7124,0.7107,0.7102,0.7166,0.7166,0.7166,0,0.8354,0.8238,0.816,0.8084,0.8026,0.7956,0.7886,0.782,0.7688,0.7648,0.764,0.7451,0.7372,0.7257,0.7247,0.7202,0.718,0.7186,0.7134,0.713,0.7127,0.7109,0.7103,0.7169,0.7169,0.7169,0.7168,0,0.8274,0.8195,0.8154,0.8032,0.7969,0.7897,0.7806,0.7751,0.7705,0.7639,0.7538,0.7441,0.7333,0.7302,0.7253,0.718,0.7178,0.7153,0.7139,0.7128,0.711,0.7103,0.7173,0.7172,0.7171,0.7171,0,0,0.8289,0.8129,0.8115,0.806,0.7937,0.7873,0.7797,0.7695,0.765,0.7561,0.7494,0.737,0.7347,0.7282,0.7225,0.718,0.715,0.7161,0.7157,0.7162,0.7063,0.7082,0.7076,0.7122,0.712,0.7119,0.7073,0,0.825,0.8115,0.8044,0.7938,0.7864,0.7797,0.7731,0.7648,0.7585,0.751,0.7438,0.7352,0.7329,0.729,0.7243,0.7164,0.7129,0.7166,0.7056,0.7053,0.7085,0.7067,0.7085,0.7046,0.7065,0.7064,0.7063,0,0.8186,0.8104,0.7992,0.7881,0.7846,0.7789,0.769,0.7621,0.7524,0.7481,0.7411,0.7356,0.7271,0.7265,0.7147,0.7174,0.7125,0.7079,0.7076,0.7061,0.7056,0.7051,0.7032,0.7026,0.7051,0.7052,0.7053,0,0.8209,0.8069,0.7984,0.7939,0.7806,0.7768,0.771,0.7615,0.7559,0.7472,0.7434,0.7337,0.7283,0.7209,0.7128,0.7131,0.7018,0.7004,0.6978,0.698,0.6955,0.6957,0.6928,0.6926,0.6926,0.6926,0.6926,0,0.8172,0.8106,0.7993,0.7941,0.7865,0.7783,0.7709,0.7646,0.7562,0.7495,0.743,0.7368,0.7266,0.719,0.7126,0.7038,0.7014,0.6976,0.6959,0.6981,0.6986,0.6946,0.6946,0.6924,0.6924,0.6925,0.6925,0,0.8183,0.8105,0.8008,0.7893,0.7862,0.7811,0.7711,0.7656,0.7592,0.7507,0.7483,0.7379,0.7287,0.7201,0.7076,0.7033,0.6945,0.6924,0.6978,0.6969,0.6947,0.695,0.6889,0.6877,0.6885,0.6885,0.6885,0,0.8164,0.8113,0.7994,0.7946,0.7891,0.7814,0.7758,0.7676,0.7619,0.7508,0.7467,0.7371,0.729,0.7145,0.7057,0.6962,0.6938,0.6923,0.6923,0.6947,0.6937,0.6941,0.6935,0.6924,0.6925,0.6925,0.6925,0,0.814,0.8105,0.8028,0.7938,0.7874,0.7798,0.772,0.7683,0.7586,0.7525,0.7433,0.7371,0.7247,0.7151,0.7047,0.6984,0.6938,0.6927,0.6915,0.6936,0.697,0.6951,0.6982,0.6928,0.6928,0.6927,0.6927,0.6927,0.8134,0.8086,0.7996,0.7912,0.7846,0.7776,0.772,0.765,0.7573,0.7468,0.7423,0.733,0.7235,0.7091,0.7029,0.6953,0.6942,0.6926,0.6921,0.6918,0.6923,0.6984,0.6934,0.6933,0.6933,0.6933,0.6933,0,0.8106,0.8046,0.7971,0.7866,0.78,0.7768,0.768,0.7626,0.7546,0.7464,0.7387,0.7281,0.7189,0.7096,0.6999,0.6956,0.6932,0.6933,0.6934,0.6921,0.6938,0.6958,0.6954,0.6954,0.6954,0.6954,0.6954,0.6954,0.8084,0.8001,0.7955,0.7839,0.7777,0.7688,0.7641,0.7575,0.751,0.7396,0.7321,0.7263,0.7175,0.7072,0.6986,0.6961,0.6927,0.6934,0.6903,0.692,0.6919,0.6918,0.6936,0.6928,0.6928,0.6891,0.6891,0.6891]}]]